Temperature
-6 -6 -6 -6 -5 -6 -7 -7 -7 -6 -7 -7 -7 -8 -7 -7 -7 -7 -6 -6 -6 -6 -6 -5 -5 -4 -4 -3 -3 -3 -2 -2 -2 -1 -1 -1 -0 0 1 1 1 2 2 2
-6 -6 -6 -6 -6 -6 -6 -7 -7 -7 -7 -8 -7 -7 -7 -7 -7 -7 -7 -7 -7 -6 -6 -6 -5 -5 -4 -4 -4 -3 -3 -3 -2 -2 -2 -1 -1 -1 -0 0 0 1 1 1
-6 -7 -6 -6 -7 -7 -7 -8 -8 -7 -7 -8 -9 -8 -8 -8 -8 -8 -8 -7 -7 -7 -7 -6 -6 -6 -5 -5 -4 -4 -4 -3 -3 -3 -2 -2 -2 -1 -1 -1 -0 -0 0 1
-7 -7 -7 -6 -8 -7 -8 -8 -9 -9 -9 -9 -8 -8 -7 -7 -7 -8 -8 -8 -7 -7 -7 -6 -6 -6 -6 -5 -5 -5 -4 -4 -4 -4 -3 -3 -3 -2 -2 -1 -1 -1 -0 0
-8 -8 -8 -7 -7 -8 -8 -8 -9 -9 -9 -8 -8 -8 -7 -7 -7 -8 -8 -8 -8 -7 -7 -7 -6 -6 -6 -6 -5 -5 -5 -5 -4 -4 -4 -3 -3 -3 -2 -2 -2 -1 -1 -1
-9 -8 -7 -7 -8 -8 -8 -8 -8 -9 -9 -9 -9 -9 -8 -7 -8 -8 -8 -8 -8 -8 -7 -7 -7 -7 -7 -6 -6 -6 -5 -5 -5 -5 -4 -4 -4 -3 -3 -3 -3 -2 -2 -1
-9 -9 -9 -9 -8 -8 -8 -7 -7 -8 -8 -9 -9 -9 -8 -8 -8 -8 -8 -8 -8 -8 -8 -8 -7 -7 -7 -7 -6 -6 -6 -6 -6 -5 -5 -5 -4 -4 -4 -3 -3 -3 -3 -2
-10 -10 -8 -8 -9 -9 -8 -7 -7 -7 -8 -9 -8 -8 -8 -8 -8 -8 -8 -8 -8 -8 -8 -8 -8 -7 -7 -7 -7 -7 -7 -6 -6 -6 -6 -5 -5 -5 -4 -4 -4 -4 -3 -3
-10 -8 -7 -8 -7 -7 -7 -7 -7 -8 -8 -9 -9 -9 -9 -9 -9 -9 -9 -9 -9 -9 -8 -8 -8 -8 -8 -7 -7 -7 -7 -7 -6 -6 -6 -6 -6 -5 -5 -5 -5 -4 -4 -3
-11 -10 -8 -7 -7 -7 -7 -8 -8 -8 -8 -9 -9 -9 -9 -9 -9 -9 -9 -9 -9 -9 -9 -8 -8 -8 -8 -8 -8 -8 -7 -7 -7 -7 -6 -6 -6 -6 -6 -5 -5 -5 -5 -4
-11 -10 -8 -7 -7 -7 -7 -8 -8 -8 -9 -9 -9 -10 -10 -10 -9 -10 -9 -9 -9 -9 -9 -9 -9 -8 -8 -8 -8 -8 -8 -8 -7 -7 -7 -7 -7 -6 -6 -6 -6 -5 -5 -5
-9 -8 -9 -7 -7 -8 -8 -8 -9 -9 -9 -9 -10 -10 -10 -10 -10 -10 -10 -10 -9 -9 -9 -9 -9 -9 -9 -9 -9 -9 -8 -8 -8 -8 -8 -7 -7 -7 -7 -6 -6 -6 -6 -5
-8 -8 -8 -8 -8 -8 -9 -9 -9 -9 -9 -10 -10 -10 -10 -10 -10 -10 -10 -10 -10 -10 -10 -9 -9 -9 -9 -9 -9 -9 -9 -9 -9 -8 -8 -8 -8 -8 -7 -7 -6 -6 -6 -6
-8 -8 -9 -8 -9 -9 -9 -9 -9 -10 -10 -10 -10 -10 -10 -10 -10 -10 -10 -10 -10 -10 -10 -10 -10 -10 -10 -10 -10 -9 -9 -9 -9 -9 -9 -9 -9 -8 -8 -8 -7 -7 -6 -6
-8 -9 -9 -9 -9 -9 -10 -10 -10 -10 -10 -10 -10 -11 -11 -11 -11 -11 -11 -11 -10 -10 -10 -10 -10 -10 -10 -10 -10 -10 -10 -10 -10 -9 -9 -9 -9 -9 -9 -9 -8 -8 -7 -6
-9 -9 -9 -9 -10 -10 -10 -10 -10 -10 -11 -11 -11 -11 -11 -11 -11 -11 -11 -11 -11 -11 -10 -10 -10 -10 -10 -10 -10 -10 -10 -10 -10 -10 -10 -10 -9 -9 -9 -9 -9 -9 -8 -8
-9 -9 -10 -10 -10 -10 -10 -11 -11 -11 -11 -11 -11 -11 -11 -11 -11 -11 -11 -11 -11 -11 -11 -11 -10 -10 -11 -10 -10 -10 -10 -10 -10 -10 -10 -10 -10 -10 -10 -10 -9 -9 -9 -9
-9 -9 -10 -10 -10 -10 -11 -11 -11 -11 -11 -11 -11 -11 -12 -12 -11 -11 -11 -11 -11 -11 -11 -11 -11 -11 -11 -11 -11 -11 -11 -11 -11 -11 -11 -11 -10 -10 -10 -10 -10 -10 -9 -9
-9 -9 -10 -10 -10 -11 -11 -11 -11 -11 -11 -11 -12 -12 -12 -12 -12 -12 -11 -11 -11 -11 -11 -11 -11 -11 -11 -11 -11 -11 -11 -11 -11 -11 -11 -11 -11 -11 -11 -10 -10 -10 -10 -10
-9 -10 -10 -10 -10 -11 -11 -11 -11 -11 -12 -12 -12 -12 -12 -12 -12 -12 -12 -12 -12 -12 -12 -12 -11 -11 -11 -11 -11 -11 -11 -11 -11 -11 -11 -11 -11 -11 -11 -11 -11 -11 -10 -10
-9 -10 -10 -10 -11 -11 -11 -11 -12 -12 -12 -12 -12 -12 -12 -12 -12 -12 -12 -12 -12 -12 -12 -12 -12 -12 -12 -12 -12 -12 -12 -12 -12 -12 -12 -12 -12 -11 -11 -11 -11 -11 -11 -11
-10 -10 -10 -11 -11 -11 -11 -12 -12 -12 -12 -12 -12 -12 -12 -12 -12 -12 -12 -12 -12 -12 -12 -12 -12 -12 -12 -12 -12 -12 -12 -12 -12 -12 -12 -12 -12 -12 -12 -12 -12 -12 -11 -11
-10 -11 -11 -11 -11 -12 -12 -12 -12 -12 -12 -13 -13 -13 -13 -13 -13 -13 -13 -13 -13 -13 -12 -12 -12 -13 -13 -12 -12 -12 -12 -12 -12 -12 -12 -12 -12 -12 -12 -12 -12 -12 -11 -11
-11 -11 -11 -11 -12 -12 -12 -12 -12 -13 -13 -13 -13 -13 -13 -13 -13 -13 -13 -13 -13 -13 -13 -13 -13 -13 -13 -13 -13 -13 -13 -13 -13 -13 -13 -13 -12 -12 -12 -12 -12 -12 -12 -12
-11 -11 -12 -12 -12 -12 -12 -13 -13 -13 -13 -13 -13 -13 -13 -14 -14 -13 -13 -13 -13 -13 -13 -13 -13 -13 -13 -13 -13 -13 -13 -13 -13 -13 -13 -13 -13 -13 -12 -12 -12 -12 -12 -12
-12 -12 -12 -12 -12 -13 -13 -13 -13 -13 -13 -13 -13 -13 -14 -14 -14 -14 -14 -14 -14 -14 -13 -13 -13 -13 -13 -13 -13 -13 -13 -13 -13 -13 -13 -13 -13 -13 -13 -13 -12 -12 -12 -12
-12 -12 -12 -12 -13 -13 -13 -13 -14 -14 -14 -14 -14 -14 -14 -14 -14 -14 -14 -14 -14 -14 -14 -14 -14 -14 -14 -14 -13 -13 -13 -13 -13 -13 -13 -13 -13 -13 -13 -13 -13 -13 -12 -12
Wind_Speed
3 4 2 3 5 2 3 4 5 5 6 9 7 7 7 7 8 9 10 10 10 9 9 9 9 8 8 8 7 7 6 6 6 6 5 5 5 5 4 3 4 3 3 3
3 3 3 5 6 4 3 3 5 6 8 6 6 5 6 7 8 9 10 10 10 10 10 10 9 9 9 8 8 7 6 6 6 6 6 5 5 5 4 3 4 3 3 3
3 5 5 5 4 2 2 3 4 6 7 6 7 8 8 8 8 9 9 10 11 10 10 9 9 9 8 8 8 7 6 6 6 6 6 6 6 5 5 4 4 4 4 4
2 5 4 6 1 1 3 5 4 5 6 6 7 8 7 6 6 8 9 10 10 10 10 10 9 8 8 8 7 6 6 6 7 6 6 6 5 5 5 4 4 4 4 4
1 2 6 6 2 1 2 6 3 5 7 7 7 6 6 5 5 7 8 9 9 9 9 9 9 8 8 8 7 6 7 7 7 6 6 6 5 5 4 4 4 4 4 4
2 1 5 6 3 1 1 5 3 3 6 6 5 5 7 7 8 9 9 8 9 9 8 8 8 8 7 7 7 7 8 8 7 7 6 6 5 5 4 3 4 4 4 4
3 4 7 6 2 2 1 6 4 3 5 4 4 6 8 9 9 8 9 9 8 8 7 8 8 7 7 7 7 8 8 7 7 7 6 6 5 4 3 3 3 3 4 4
3 3 7 2 3 4 6 4 3 4 5 6 7 8 8 9 9 9 9 9 8 8 8 8 7 7 7 8 8 7 7 7 7 6 6 5 4 4 3 3 3 3 3 4
7 8 4 4 5 4 3 4 5 4 6 6 7 8 9 9 9 9 9 9 8 8 9 9 8 7 7 9 8 7 7 7 7 7 5 5 4 4 3 2 3 3 3 4
5 8 6 6 6 5 4 5 6 6 6 5 7 8 9 9 9 9 9 8 8 8 9 10 9 8 7 8 7 6 6 6 6 6 6 5 4 3 3 3 3 3 4 4
6 7 7 5 6 6 6 5 6 6 5 6 6 8 8 8 9 8 8 8 7 7 8 10 10 9 8 8 7 6 6 6 6 5 5 5 4 4 4 4 4 5 4 5
7 5 5 7 5 4 5 6 6 6 6 6 6 7 8 8 8 7 8 7 7 8 9 9 9 9 9 7 6 6 6 6 5 4 4 4 4 5 6 6 8 8 8 7
6 4 5 6 5 3 4 5 5 5 6 7 6 6 7 7 7 7 7 7 8 8 8 9 9 9 9 8 7 6 6 6 5 5 5 5 4 4 6 6 8 8 9 9
4 3 5 4 4 5 5 5 5 5 5 5 5 6 6 7 7 7 8 8 8 8 8 8 8 9 9 7 7 6 6 6 6 4 5 4 4 4 4 5 6 6 7 9
4 4 6 5 5 5 4 4 4 5 5 5 5 6 6 7 7 8 8 8 8 8 8 8 9 9 8 7 6 6 6 5 5 4 4 4 4 4 4 5 5 5 5 6
4 4 4 5 7 6 5 4 5 6 6 6 6 6 7 7 7 7 7 7 7 8 9 8 9 9 8 7 6 5 5 8 7 5 4 4 4 4 4 4 4 4 5 5
3 5 4 5 6 6 5 5 6 6 6 6 7 7 7 7 7 7 7 7 7 8 8 8 8 8 7 6 5 5 5 6 8 6 4 4 4 4 4 4 4 4 5 6
6 6 5 5 6 6 6 6 5 5 6 6 6 6 6 7 8 8 8 8 7 7 8 8 8 7 7 6 5 4 4 4 4 4 4 4 4 4 4 4 4 5 4 5
5 5 5 5 5 5 5 5 5 5 5 5 5 6 6 7 7 8 7 7 7 8 8 8 10 8 7 7 7 4 4 4 4 4 4 6 5 4 4 4 4 4 4 4
4 4 4 4 4 4 5 5 5 5 5 4 5 6 6 7 7 7 7 6 6 6 7 8 7 6 6 7 7 4 4 5 5 4 4 4 4 4 4 4 4 4 4 4
4 4 4 4 4 4 4 5 5 5 5 5 5 6 7 7 7 6 5 7 7 7 7 10 7 6 6 6 6 4 4 4 4 4 4 4 4 4 4 4 4 4 4 4
4 4 4 4 4 5 4 4 4 5 5 5 6 6 6 7 7 6 5 5 7 10 7 5 5 8 9 8 4 4 4 4 4 4 4 4 4 4 4 4 4 4 4 3
4 4 4 4 4 5 5 4 5 5 5 6 6 6 6 6 5 5 7 5 6 10 8 5 9 12 11 6 3 4 4 4 4 4 4 4 4 4 4 4 4 4 4 4
4 3 4 4 3 3 5 5 5 5 5 6 6 6 5 5 5 4 5 9 11 11 6 9 12 12 10 4 4 4 4 4 4 4 4 4 4 4 4 4 4 4 4 4
3 3 3 3 4 4 5 5 5 5 5 5 6 5 4 4 4 6 5 6 10 10 6 9 12 12 7 4 4 4 4 4 5 4 4 4 4 4 4 4 4 4 4 4
3 3 3 4 4 4 4 3 4 4 4 5 5 5 4 4 5 5 5 6 7 9 6 5 6 7 5 5 5 5 5 6 6 5 5 5 5 5 4 5 5 5 5 5
2 2 3 3 3 3 3 3 4 5 4 5 6 6 5 5 5 5 5 5 5 5 5 5 5 5 5 5 5 5 5 5 5 5 5 5 4 5 5 6 5 5 5 5
Wind_Direction
244 275 294 303 306 305 200 207 219 257 264 281 296 298 305 313 321 330 333 336 336 335 333 333 334 335 335 333 333 336 338 339 332 328 325 325 320 311 307 304 298 288 282 277
297 294 315 307 302 294 256 236 246 275 281 284 300 305 310 314 321 325 325 327 327 327 327 328 328 329 330 331 331 333 335 333 331 333 330 325 318 313 309 302 299 300 291 280
298 323 338 305 283 249 250 229 212 248 270 314 319 313 307 307 311 311 317 321 322 320 318 318 319 320 322 322 324 327 327 327 327 329 328 326 321 317 307 294 291 288 284 276
313 6 292 257 283 247 255 267 240 262 290 299 293 294 291 288 297 306 314 317 317 316 315 315 315 318 320 320 322 322 322 322 322 323 319 316 315 314 311 296 282 276 277 273
82 301 283 295 293 220 249 287 247 258 287 301 316 316 301 294 304 301 303 305 306 307 307 311 316 319 321 320 321 323 321 319 317 316 313 311 308 304 300 301 299 291 280 274
128 237 263 268 289 297 101 295 276 255 283 305 339 326 302 317 317 311 311 312 312 313 316 318 318 321 321 319 321 317 314 314 313 311 306 302 294 291 292 294 294 298 294 282
199 238 267 266 276 93 133 272 300 270 274 276 258 257 287 309 311 310 311 314 317 317 319 316 318 323 319 315 310 308 311 313 314 313 306 298 292 290 287 287 289 285 287 289
174 219 263 237 137 189 234 281 290 280 272 267 274 287 297 304 308 314 318 321 324 324 320 320 323 324 318 312 309 312 313 313 314 313 308 307 305 298 288 279 280 281 284 289
199 220 251 196 216 244 253 268 273 274 278 279 288 294 302 305 306 310 314 318 322 320 320 323 326 325 315 312 316 319 319 317 316 316 316 312 304 300 296 282 275 280 277 281
257 265 264 255 260 270 254 257 274 277 281 284 288 295 301 304 308 311 314 316 320 322 323 323 325 324 313 313 319 320 319 319 322 323 321 320 309 297 290 279 274 272 273 275
259 281 304 280 255 262 272 277 283 287 281 281 289 297 300 302 303 306 310 313 317 318 316 317 322 322 321 322 325 322 319 319 323 322 316 316 315 303 291 277 271 275 273 268
242 246 239 270 282 278 276 278 280 286 293 293 284 288 297 298 299 303 306 311 315 316 316 317 321 323 325 326 326 323 321 322 322 321 318 316 317 318 314 307 306 301 293 283
246 267 252 275 293 295 281 284 287 282 281 292 295 291 295 299 303 307 310 312 312 311 311 314 319 321 323 326 326 323 318 319 319 321 319 317 318 319 319 325 326 322 316 304
258 280 285 285 289 300 292 293 296 297 294 292 298 304 304 304 308 310 309 309 309 310 312 315 317 317 319 323 323 321 316 315 319 316 314 313 313 312 313 318 323 323 322 321
258 241 254 285 300 305 306 309 312 310 310 310 310 311 311 310 308 306 308 313 316 316 315 317 317 316 321 322 322 318 316 318 317 316 315 312 311 313 313 314 316 320 327 331
284 274 268 280 287 295 305 306 302 302 306 306 309 307 304 301 301 305 312 319 319 316 315 316 313 315 322 323 322 320 319 322 326 323 321 321 321 320 319 320 322 325 327 325
267 280 280 285 288 290 289 285 284 288 295 297 299 303 308 310 311 313 315 316 310 306 312 316 314 319 323 322 319 318 319 323 325 326 325 323 322 321 317 317 322 322 323 330
239 251 257 261 270 281 291 293 289 289 290 292 300 307 309 308 306 307 311 316 318 318 318 317 319 323 323 323 320 316 319 320 322 322 324 325 325 324 322 320 321 322 326 335
254 259 267 271 269 270 278 286 288 290 294 299 302 300 297 297 298 303 310 317 321 320 322 322 326 328 324 322 325 318 318 317 318 319 320 324 327 328 328 330 333 337 338 340
273 275 276 281 281 271 274 282 286 291 294 297 298 300 302 303 305 309 310 305 299 297 308 319 321 317 315 316 322 317 314 312 311 316 321 324 328 332 335 335 336 337 338 339
272 276 279 282 287 285 278 280 283 286 292 293 289 290 293 299 303 305 308 307 308 308 314 321 324 319 318 322 323 320 316 317 318 318 319 320 323 327 329 329 328 329 330 332
266 269 274 278 283 288 289 285 278 282 290 292 290 289 296 302 306 304 290 284 301 317 323 315 316 320 327 328 327 324 322 320 318 317 316 316 317 319 321 322 321 320 321 322
262 265 272 275 277 285 294 289 282 282 284 288 291 292 291 292 295 299 305 306 309 316 322 314 318 323 326 331 331 324 320 318 315 313 312 310 309 309 310 313 313 315 314 313
266 272 279 286 290 292 294 294 292 288 283 283 284 285 288 296 297 279 281 306 317 317 316 316 322 324 328 336 325 319 315 314 311 308 309 310 309 307 305 306 307 309 308 305
271 273 279 288 288 285 287 296 300 298 296 296 296 295 289 279 283 298 300 302 313 318 316 319 323 326 332 325 319 314 311 307 306 307 305 306 306 306 303 302 302 303 304 300
271 274 273 269 271 278 286 291 296 301 305 307 307 304 300 296 292 297 303 306 309 317 320 316 319 321 321 315 310 308 307 307 310 310 306 303 301 300 301 302 301 298 297 297
286 289 290 291 287 282 284 286 291 298 301 300 300 303 305 308 309 308 307 308 311 312 311 312 314 314 312 310 309 307 306 305 304 303 302 300 297 295 297 296 297 299 300 299
Height
1540 1538 1537 1536 1533 1533 1535 1534 1534 1529 1528 1521 1520 1518 1515 1512 1509 1505 1501 1498 1495 1492 1488 1485 1482 1480 1478 1476 1474 1472 1471 1470 1469 1468 1468 1468 1467 1467 1468 1468 1469 1470 1471 1472
1539 1536 1536 1533 1531 1530 1530 1531 1531 1527 1524 1519 1517 1515 1513 1510 1507 1504 1500 1497 1494 1491 1488 1484 1481 1478 1476 1473 1472 1470 1468 1467 1466 1465 1464 1464 1463 1463 1463 1464 1465 1466 1466 1468
1541 1539 1534 1534 1531 1530 1529 1529 1529 1527 1523 1519 1516 1514 1511 1508 1506 1503 1500 1496 1493 1489 1486 1483 1480 1477 1474 1471 1469 1468 1466 1464 1462 1461 1460 1459 1459 1459 1459 1460 1461 1462 1463 1464
1544 1543 1544 1533 1529 1528 1528 1526 1525 1523 1520 1518 1516 1512 1509 1507 1505 1501 1498 1495 1491 1487 1483 1481 1477 1475 1472 1470 1467 1465 1463 1461 1459 1457 1456 1456 1455 1455 1455 1456 1456 1457 1458 1459
1548 1549 1543 1532 1528 1528 1529 1525 1521 1521 1518 1516 1514 1510 1506 1505 1503 1500 1497 1493 1489 1486 1482 1478 1475 1472 1469 1466 1463 1461 1459 1457 1456 1454 1452 1451 1451 1451 1451 1451 1452 1453 1453 1454
1550 1548 1543 1532 1528 1526 1528 1525 1518 1517 1516 1514 1513 1512 1506 1502 1500 1497 1494 1490 1487 1483 1479 1475 1472 1469 1466 1463 1460 1458 1456 1455 1453 1451 1449 1448 1447 1447 1447 1448 1448 1449 1449 1450
1552 1550 1540 1529 1526 1526 1531 1524 1517 1515 1514 1513 1512 1510 1505 1501 1498 1494 1491 1488 1484 1480 1476 1473 1470 1467 1463 1460 1458 1456 1454 1452 1450 1448 1446 1445 1444 1444 1444 1444 1445 1445 1446 1446
1551 1550 1539 1524 1525 1526 1523 1517 1516 1514 1512 1510 1508 1505 1502 1499 1495 1492 1488 1485 1481 1477 1474 1471 1468 1465 1461 1459 1457 1454 1452 1449 1447 1446 1444 1443 1441 1441 1441 1441 1441 1441 1441 1442
1538 1532 1522 1520 1519 1518 1517 1516 1513 1512 1510 1508 1505 1502 1499 1496 1493 1489 1486 1482 1479 1475 1471 1468 1466 1463 1459 1457 1454 1451 1449 1446 1444 1443 1441 1440 1439 1438 1437 1437 1437 1437 1437 1437
1531 1522 1518 1517 1516 1515 1514 1513 1511 1509 1507 1505 1502 1499 1496 1493 1489 1486 1483 1480 1477 1473 1469 1466 1463 1461 1458 1455 1452 1449 1446 1444 1442 1440 1438 1437 1436 1435 1434 1434 1434 1434 1433 1433
1527 1519 1516 1513 1513 1512 1510 1509 1507 1506 1504 1502 1499 1496 1493 1490 1487 1484 1481 1478 1474 1471 1467 1464 1462 1459 1456 1453 1450 1446 1444 1442 1440 1438 1436 1434 1433 1432 1431 1431 1430 1430 1430 1430
1520 1515 1515 1511 1510 1509 1507 1505 1503 1502 1499 1498 1496 1492 1490 1487 1484 1481 1478 1475 1472 1469 1466 1462 1459 1457 1454 1451 1448 1444 1441 1439 1438 1436 1434 1432 1430 1429 1428 1427 1427 1426 1426 1426
1513 1512 1511 1509 1508 1506 1504 1502 1500 1499 1496 1494 1492 1490 1487 1484 1481 1478 1475 1472 1469 1467 1463 1460 1457 1454 1452 1449 1446 1443 1440 1438 1436 1434 1432 1430 1427 1426 1424 1423 1423 1422 1421 1421
1511 1510 1508 1506 1505 1503 1501 1499 1498 1496 1494 1491 1489 1486 1484 1481 1478 1475 1473 1470 1467 1464 1461 1458 1455 1452 1450 1447 1444 1441 1439 1436 1434 1432 1430 1428 1426 1424 1422 1420 1419 1418 1418 1418
1507 1507 1505 1503 1502 1500 1498 1497 1495 1492 1490 1488 1486 1484 1481 1478 1475 1473 1470 1467 1465 1461 1458 1455 1452 1450 1448 1445 1442 1439 1437 1434 1432 1430 1428 1426 1424 1422 1421 1419 1418 1416 1415 1415
1504 1503 1502 1500 1499 1497 1495 1494 1492 1490 1488 1485 1483 1481 1478 1476 1473 1470 1468 1465 1462 1459 1456 1453 1450 1448 1446 1443 1441 1438 1435 1433 1431 1428 1426 1424 1423 1421 1419 1418 1416 1415 1414 1413
1501 1499 1498 1497 1495 1494 1492 1491 1489 1487 1485 1483 1481 1478 1476 1473 1470 1468 1465 1463 1460 1457 1454 1451 1449 1447 1444 1442 1439 1436 1434 1432 1430 1427 1425 1423 1421 1420 1418 1416 1415 1413 1413 1412
1498 1497 1496 1494 1492 1491 1489 1488 1486 1485 1483 1481 1478 1476 1473 1471 1468 1465 1463 1460 1458 1455 1452 1450 1447 1445 1443 1440 1438 1435 1433 1431 1429 1426 1424 1422 1420 1419 1417 1415 1414 1413 1411 1411
1495 1494 1492 1491 1490 1488 1486 1485 1484 1482 1480 1478 1475 1473 1471 1469 1466 1464 1461 1458 1455 1452 1450 1448 1446 1443 1441 1439 1437 1434 1432 1430 1428 1426 1424 1422 1420 1418 1416 1415 1413 1412 1411 1410
1492 1491 1490 1488 1487 1485 1484 1482 1481 1479 1477 1475 1473 1471 1468 1466 1464 1461 1458 1456 1454 1451 1449 1446 1444 1441 1439 1437 1435 1433 1431 1429 1427 1425 1423 1421 1419 1418 1416 1414 1413 1412 1411 1410
1490 1488 1487 1486 1484 1483 1481 1480 1478 1476 1474 1472 1470 1468 1466 1464 1461 1459 1456 1453 1452 1449 1447 1444 1442 1439 1437 1435 1434 1431 1429 1427 1426 1424 1422 1420 1419 1417 1416 1414 1413 1412 1410 1409
1487 1486 1484 1483 1481 1480 1479 1477 1475 1473 1471 1469 1467 1465 1463 1461 1458 1456 1454 1451 1449 1447 1445 1442 1440 1438 1436 1434 1432 1430 1428 1426 1424 1422 1421 1419 1418 1416 1415 1413 1412 1411 1410 1409
1484 1483 1481 1480 1479 1477 1475 1474 1472 1470 1468 1466 1464 1462 1460 1458 1456 1453 1451 1449 1447 1445 1442 1440 1438 1436 1434 1432 1430 1428 1426 1424 1422 1421 1419 1418 1416 1415 1413 1412 1411 1409 1408 1407
1481 1480 1478 1477 1476 1474 1472 1471 1469 1467 1465 1463 1461 1459 1457 1455 1453 1451 1449 1446 1444 1442 1440 1438 1436 1433 1431 1429 1428 1426 1424 1422 1421 1419 1418 1416 1414 1413 1412 1410 1409 1408 1407 1406
1478 1477 1475 1474 1472 1471 1469 1467 1466 1464 1462 1460 1458 1457 1455 1452 1450 1448 1446 1444 1442 1439 1437 1435 1433 1431 1429 1427 1425 1424 1422 1420 1419 1417 1415 1414 1412 1411 1410 1408 1407 1406 1405 1404
1475 1474 1472 1471 1470 1468 1466 1465 1463 1461 1459 1457 1455 1454 1452 1449 1447 1445 1443 1441 1439 1436 1434 1432 1430 1428 1427 1425 1423 1421 1420 1418 1416 1415 1413 1412 1410 1409 1407 1406 1405 1404 1403 1402
1472 1471 1469 1468 1467 1465 1464 1462 1460 1458 1456 1454 1452 1451 1449 1446 1444 1442 1440 1438 1436 1434 1432 1430 1428 1426 1424 1422 1421 1419 1417 1416 1414 1412 1411 1409 1408 1406 1405 1404 1403 1402 1400 1399